Weather in Adamivka

Ukraine / Dnipropetrovsk Region     48°19′19″N   34°12′47″E
temp.,
°C
wind,
m/s
gust,
m/s
humid.,
%
clouds,
%
prec.,
mm/h
press.,
hPa
HPBL,
m
18 april, sun
sun1800:00+7ene017175 0.0 102010
03:00+6n227485 0.0 101910
06:00+5nnw018356 0.0 101910
09:00+10wnw01635 0.0 1018433
12:00+13sw344518 0.0 10181808
15:00+15wsw443978 0.0 10162035
18:00+13nnw545186 0.0 1017656
21:00+11nne2362100 0.0 101767
19 april, mon
mon1900:00+9nne336930 0.0 101774
03:00+7nne3585100 0.0 1018123
06:00+6nne2485100 0.0 1017130
09:00+10ne337187 0.0 1017442
12:00+13nne3256100 0.0 10161193
15:00+14n324986 0.1 10151629
18:00+14nne335184 0.0 10141014
21:00+11nne355998 0.0 1014108
20 april, tue
tue2000:00+9nne4865100 0.0 1012160
03:00+8ne51070100 0.0 1009244
06:00+8ne51179100 0.4 1007352
09:00+8ne81491100 3.9 1004573
12:00+8ne71395100 8.3 1000823
15:00+9nne4696100 11.1 998524
18:00+8nw5895100 2.1 997492
21:00+8nnw91391100 3.4 10001134
21 april, wed
wed2100:00+8nw81288100 0.9 1004939
03:00+6w71284100 0.9 1009631
06:00+4w51089100 0.0 1012475
09:00+7w6870100 0.0 1014940
12:00+11w6855100 0.0 10161603
15:00+11w5753100 0.0 10171446
18:00+12wsw2555100 0.0 10181268
21:00+9s3370100 0.0 101924
22 april, thu
thu2200:00+9sw4880100 0.0 1020214
03:00+9s348496 0.5 102080
06:00+7s378792 0.0 1021164
09:00+11ssw577384 0.0 1022510
12:00+13ssw566374 0.0 1022875
15:00+16ssw564799 1.0 10212165
18:00+13sw4766100 0.1 1022402
21:00+10s3678100 0.1 1022107